Find Local Weather

World > North America > United States > Minnesota

Balaton, Minnesota Regional Weather

Lat: 44.23N, Lon: 95.87W
Wx Zone: MNZ072
Warning FLW WEATHER ALERT - (More Info. Click Here) Warning
Feedback

Balaton, MN Regional Weather

Expires:201903190600;;587007
ASUS43 KMPX 190510
RWRMN 
WEATHER ROUNDUP FOR MINNESOTA
NATIONAL WEATHER SERVICE TWIN CITIES/CHANHASSEN MN
1200 AM CDT TUE MAR 19 2019


NOTE: "FAIR" INDICATES FEW OR NO CLOUDS BELOW 12,000 FEET WITH NO
SIGNIFICANT WEATHER AND/OR OBSTRUCTIONS TO VISIBILITY. N/A MEANS
CURRENT SKY AND/OR WEATHER CONDITIONS ARE NOT AVAILABLE.


MNZ071>073-080-081-089-090-097-098-190600-
   Southwest Minnesota   
  
CITY           SKY/WX    TMP DP  RH WIND       PRES   REMARKS
MONTEVIDEO     CLEAR     30  27  86 S5        30.22S WCI  25          
GRANITE FALLS  PTCLDY    32  29  88 SE9       30.23F WCI  24          
CANBY          CLEAR     34  25  70 S10       30.21S WCI  26          
MARSHALL       MOCLDY    33  25  72 SW16      30.21F WCI  23          
REDWOOD FALLS  PTCLDY    31  27  85 S9        30.24F WCI  23          
OLIVIA         PTCLDY    32  28  86 S8        30.24S WCI  25          
WINDOM         PTCLDY    34  27  75 S9        30.25S WCI  26          
WORTHINGTON    PTCLDY    34  26  72 S14       30.25F WCI  25          
JACKSON        MOCLDY    32  28  86 S9        30.27S WCI  24          
SLAYTON        PTCLDY    31  26  81 S10       30.24S WCI  22          
$$

SKY/WX - Weather  TMP - Temperature  DP - Dew Point  RH - Relative Humidity
WIND - Wind Direction/Speed PRES - Barometric Pressure VSB - Visibility
WCI - Wind Chill Index E13G22 Wind - East Wind 13 mph/Gusts of 22 mph